Weather History for Darwin Airport, Northern Territory

Change the Weather History Date:

Sunday, October 27, 2013

  Actual Average Record
Temperature  
Mean Temperature 84 °F -  
Max Temperature 91 °F 92 °F - ()
Min Temperature 77 °F 78 °F - ()
Cooling Degree Days 19    
Growing Degree Days 34 (Base 50)    
Moisture  
Dew Point 74 °F    
Average Humidity 73    
Maximum Humidity 94    
Minimum Humidity 43    
Precipitation  
Precipitation 0.01 in 0.17 in - ()
Sea Level Pressure  
Sea Level Pressure 29.88 in    
Wind  
Wind Speed 8 mph ()    
Max Wind Speed 17 mph    
Max Gust Speed -    
Visibility 7.5 miles    
Events Rain , Thunderstorm    
T = Trace of Precipitation, MM = Missing Value Source: Averaged Metar Reports

Daily Weather History Graph

Daily Weather History Graph

Search for Another Location

Airport:

Trip Planner

Search our weather history database for the weather conditions in past years. The results will help you decide how hot, cold, wet, or windy it might be!

Date:

Astronomy

Oct. 27, 2013 Rise Set
Actual Time 6:15 AM ACST 6:45 PM ACST
Civil Twilight 5:53 AM ACST 7:07 PM ACST
Nautical Twilight 5:28 AM ACST 7:32 PM ACST
Astronomical Twilight 5:02 AM ACST 7:58 PM ACST
Moon 12:42 AM ACST (10/27) 12:36 PM ACST (10/27)
Length of Visible Light 13h 13m
Length of Day
12h 29m
Waning Gibbous, 49% of the Moon is Illuminated
Oct 27
Waning Gibbous
Nov 3
New
Nov 10
First Quarter
Nov 18
Full
Nov 26
Last Quarter

Hourly Weather History & Observations

Time (ACST) Temp. Heat Index Dew Point Humidity Pressure Visibility Wind Dir Wind Speed Gust Speed Precip Events Conditions
12:00 AM 79 °F - 77 °F 92% 29.92 in 9 mi North 17.3 mph - - Rain , Thunderstorm Thunderstorms and Rain
12:00 AM 78.8 °F - 77.0 °F 94% 29.92 in 6.2 mi North 17.3 mph - N/A Rain , Thunderstorm Light Thunderstorms and Rain
12:13 AM 78.8 °F - 75.2 °F 89% 29.92 in 6.2 mi North 10.4 mph - N/A Thunderstorm Partly Cloudy
12:30 AM 78 °F - 74 °F 84% 29.91 in - WNW 6.9 mph - -  
12:30 AM 78.8 °F - 73.4 °F 83% 29.89 in 6.2 mi WNW 6.9 mph - N/A Thunderstorm Mostly Cloudy
1:00 AM 78.8 °F - 73.4 °F 83% 29.89 in 6.2 mi WNW 9.2 mph - N/A   Mostly Cloudy
1:30 AM 78.8 °F - 75.2 °F 89% 29.89 in 6.2 mi NNE 5.8 mph - N/A   Mostly Cloudy
2:00 AM 78.8 °F - 75.2 °F 89% 29.89 in 6.2 mi West 5.8 mph - N/A   Mostly Cloudy
2:30 AM 78.8 °F - 75.2 °F 89% 29.89 in 6.2 mi West 5.8 mph - N/A   Mostly Cloudy
3:00 AM 78 °F - 75 °F 89% 29.88 in 9 mi North 5.8 mph - -   Partly Cloudy
3:00 AM 78.8 °F - 75.2 °F 89% 29.89 in 6.2 mi North 5.8 mph - N/A   Mostly Cloudy
3:30 AM 80 °F - 76 °F 86% 29.88 in - NNW 6.9 mph - -  
3:30 AM 80.6 °F 87.1 °F 77.0 °F 89% 29.89 in 6.2 mi NNW 6.9 mph - N/A   Mostly Cloudy
4:00 AM 80.6 °F 87.1 °F 77.0 °F 89% 29.89 in 6.2 mi North 8.1 mph - N/A   Mostly Cloudy
4:30 AM 80.6 °F 87.1 °F 77.0 °F 89% 29.89 in 6.2 mi North 6.9 mph - N/A   Mostly Cloudy
5:00 AM 80.6 °F 87.1 °F 77.0 °F 89% 29.89 in 6.2 mi NNW 6.9 mph - N/A   Mostly Cloudy
5:30 AM 80.6 °F 87.1 °F 77.0 °F 89% 29.89 in 6.2 mi NNW 5.8 mph - N/A   Mostly Cloudy
6:00 AM 80 °F - 77 °F 88% 29.89 in 9 mi North 4.6 mph - -   Haze
6:00 AM 78.8 °F - 77.0 °F 94% 29.89 in 6.2 mi North 4.6 mph - N/A   Mostly Cloudy
6:30 AM 80 °F - 77 °F 87% 29.90 in - North 4.6 mph - -  
6:30 AM 80.6 °F 87.1 °F 77.0 °F 89% 29.89 in 6.2 mi North 4.6 mph - N/A   Mostly Cloudy
7:00 AM 80.6 °F 87.1 °F 77.0 °F 89% 29.89 in 6.2 mi North 4.6 mph - N/A   Mostly Cloudy
7:30 AM 84.2 °F 94.1 °F 77.0 °F 79% 29.92 in 6.2 mi North 5.8 mph - N/A   Scattered Clouds
8:00 AM 86.0 °F 95.1 °F 75.2 °F 70% 29.92 in 6.2 mi North 8.1 mph - N/A   Scattered Clouds
8:30 AM 86.0 °F 93.4 °F 73.4 °F 66% 29.95 in 6.2 mi North 6.9 mph - N/A   Scattered Clouds
9:00 AM 87 °F - 75 °F 60% 29.95 in 19 mi North 8.1 mph - -   Partly Cloudy
9:00 AM 86.0 °F 95.1 °F 75.2 °F 70% 29.95 in 6.2 mi North 8.1 mph - N/A   Scattered Clouds
9:30 AM 87 °F - 74 °F 59% 29.95 in - NW 5.8 mph - -  
9:30 AM 87.8 °F 97.6 °F 75.2 °F 66% 29.95 in 6.2 mi NW 5.8 mph - N/A   Partly Cloudy
10:00 AM 87.8 °F 95.6 °F 73.4 °F 62% 29.95 in 6.2 mi North 2.3 mph - N/A   Scattered Clouds
10:30 AM 87.8 °F 95.6 °F 73.4 °F 62% 29.95 in 6.2 mi NW 6.9 mph - N/A   Scattered Clouds
11:00 AM 86.0 °F 93.4 °F 73.4 °F 66% 29.92 in 6.2 mi NNW 9.2 mph - N/A   Scattered Clouds
11:30 AM 86.0 °F 95.1 °F 75.2 °F 70% 29.92 in 6.2 mi WNW 11.5 mph - N/A   Scattered Clouds
12:00 PM 85 °F - 76 °F 67% 29.91 in 19 mi West 12.7 mph - -   Partly Cloudy
12:00 PM 84.2 °F 92.3 °F 75.2 °F 74% 29.89 in 6.2 mi West 12.7 mph - N/A   Scattered Clouds
12:30 PM 87 °F - 76 °F 64% 29.89 in - WNW 6.9 mph - -  
12:30 PM 87.8 °F 99.7 °F 77.0 °F 70% 29.89 in 6.2 mi WNW 6.9 mph - N/A   Scattered Clouds
1:00 PM 87.8 °F 95.6 °F 73.4 °F 62% 29.86 in 6.2 mi NW 9.2 mph - N/A   Scattered Clouds
1:30 PM 89.6 °F 99.8 °F 75.2 °F 62% 29.83 in 6.2 mi NNW 9.2 mph - N/A   Scattered Clouds
2:00 PM 89.6 °F 98.2 °F 73.4 °F 59% 29.83 in 6.2 mi North 9.2 mph - N/A   Scattered Clouds
2:30 PM 89.6 °F 99.8 °F 75.2 °F 62% 29.83 in 6.2 mi NW 12.7 mph - N/A   Partly Cloudy
3:00 PM 88 °F - 74 °F 56% 29.81 in 19 mi North 11.5 mph - -   Partly Cloudy
3:00 PM 87.8 °F 97.6 °F 75.2 °F 66% 29.80 in 6.2 mi North 11.5 mph - N/A   Scattered Clouds
3:30 PM 89 °F - 73 °F 50% 29.80 in - North 15.0 mph - -  
3:30 PM 89.6 °F 98.2 °F 73.4 °F 59% 29.80 in 6.2 mi North 15.0 mph - N/A   Scattered Clouds
4:00 PM 91.4 °F 98.4 °F 71.6 °F 52% 29.80 in 6.2 mi North 12.7 mph - N/A   Scattered Clouds
4:30 PM 91.4 °F 94.0 °F 66.2 °F 43% 29.77 in 6.2 mi NW 12.7 mph - N/A Thunderstorm Partly Cloudy
5:00 PM 86.0 °F 91.8 °F 71.6 °F 62% 29.80 in 6.2 mi WNW 5.8 mph - N/A   Mostly Cloudy
5:30 PM 86.0 °F 90.4 °F 69.8 °F 58% 29.80 in 6.2 mi WNW 10.4 mph - N/A   Mostly Cloudy
6:00 PM 87 °F - 71 °F 49% 29.81 in 19 mi NNW 8.1 mph - -   Scattered Clouds
6:00 PM 87.8 °F 92.6 °F 69.8 °F 55% 29.80 in 6.2 mi NNW 8.1 mph - N/A   Mostly Cloudy
6:30 PM 85 °F - 73 °F 60% 29.82 in - West 8.1 mph - -  
6:30 PM 84.2 °F 90.9 °F 73.4 °F 70% 29.83 in 6.2 mi West 8.1 mph - N/A   Mostly Cloudy
7:00 PM 86.0 °F 93.4 °F 73.4 °F 66% 29.86 in 6.2 mi WSW 5.8 mph - N/A   Mostly Cloudy
7:30 PM 82.4 °F 88.2 °F 73.4 °F 74% 29.89 in 6.2 mi South 11.5 mph - N/A   Scattered Clouds
8:00 PM 80.6 °F 84.6 °F 71.6 °F 74% 29.89 in 6.2 mi South 10.4 mph - N/A   Mostly Cloudy
8:30 PM 78.8 °F - 71.6 °F 78% 29.89 in 6.2 mi South 15.0 mph - N/A Thunderstorm Partly Cloudy
9:00 PM 79 °F - 70 °F 68% 29.90 in 19 mi SW 8.1 mph - - Thunderstorm Thunderstorm
9:00 PM 78.8 °F - 69.8 °F 74% 29.89 in 6.2 mi SW 8.1 mph - N/A   Mostly Cloudy
9:30 PM 79 °F - 69 °F 64% 29.91 in - West 8.1 mph - -  
9:30 PM 78.8 °F - 69.8 °F 74% 29.89 in 6.2 mi West 8.1 mph - N/A   Mostly Cloudy
10:00 PM 78.8 °F - 69.8 °F 74% 29.92 in 6.2 mi WSW 5.8 mph - N/A   Mostly Cloudy
10:30 PM 78.8 °F - 69.8 °F 74% 29.92 in 6.2 mi WSW 8.1 mph - N/A   Mostly Cloudy
11:00 PM 80.6 °F 83.9 °F 69.8 °F 70% 29.92 in 6.2 mi WSW 5.8 mph - N/A   Mostly Cloudy
11:30 PM 80.6 °F 83.9 °F 69.8 °F 70% 29.92 in 6.2 mi West 3.5 mph - N/A   Scattered Clouds